Flag for Slovakia Weather past 2 weeks in Piešťany, Slovakia

Now
61 °F

Broken clouds.


Feels Like: 61 °F
Forecast: 52 / 63 °F
Wind: 3 mph from Northeast

Location: Piestany

Current Time: Sep 5, 2015 at 10:25:55 AM

Latest Report: Sep 5, 2015 at 10:00 AM


Visibility: N/A

Pressure: 29.92 "Hg

Humidity: 83%

Dew point: 55 °F

Location of PiešťanyLocation

Historic Weather in Piešťany — Graph

°F

Piešťany temperature yesterday

Maximum temperature yesterday: 72 °F (at 2:00 PM)
Minimum temperature yesterday: 59 °F (at 11:00 PM)
Average temperature yesterday: 65 °F

Past Weeks' High & Low Weather Summary

 TemperatureHumidityPressure
High91 °F (Aug 29, 3:30 PM)100% (Aug 26, 4:00 AM)30.24 "Hg (Aug 26, 4:00 AM)
Low52 °F (Aug 27, 3:30 AM)31% (Aug 21, 4:30 PM)29.74 "Hg (Sep 1, 7:30 PM)
Average70 °F67%30.02 "Hg
* Reported Aug 21 9:00 AM — Sep 5 9:00 AM, Piešťany, Weather by CustomWeather, © 2015

Note: Actual official high and low records may vary slightly from our data, if they occured in-between our weather recording intervals... More about our weather records

Advertising

Piešťany weather history for previous 24 hours

 ConditionsComfort  
Time TempWeatherWind HumidityBarometerVisibility
9:00 AM
Sat, Sep 5
61 °FLight rain. Broken clouds.3 mph88%29.92 "HgN/A
8:30 AM59 °FLight rain. More clouds than sun.3 mph88%29.95 "HgN/A
8:00 AM59 °FLight rain. More clouds than sun.2 mph88%29.92 "HgN/A
7:30 AM59 °FLight rain. More clouds than sun.No wind82%29.95 "HgN/A
7:00 AM57 °FLight rain. Mostly cloudy.9 mph88%29.92 "HgN/A
6:30 AM57 °FLight rain. Partly cloudy.5 mph88%29.92 "HgN/A
6:00 AM57 °FPartly cloudy.3 mph88%29.92 "HgN/A
5:30 AM59 °FOvercast.8 mph77%29.92 "HgN/A
5:00 AM59 °FOvercast.7 mph88%29.92 "HgN/A
4:30 AM59 °FOvercast.5 mph88%29.92 "HgN/A
4:00 AM59 °FMostly cloudy.6 mph82%29.95 "HgN/A
3:30 AM57 °FPartly cloudy.5 mph88%29.95 "HgN/A
3:00 AM57 °FOvercast.6 mph88%29.95 "HgN/A
2:30 AM59 °FOvercast.2 mph82%29.95 "HgN/A
2:00 AM59 °FOvercast.6 mph88%29.95 "HgN/A
1:30 AM59 °FLight rain. Overcast.2 mph82%29.95 "HgN/A
1:00 AM59 °FOvercast.3 mph82%29.95 "HgN/A
12:30 AM59 °FOvercast.6 mph82%29.95 "HgN/A
12:00 AM59 °FMostly cloudy.6 mph82%29.95 "HgN/A
11:30 PM
Fri, Sep 4
59 °FPassing clouds.5 mph77%29.95 "HgN/A
11:00 PM59 °FPassing clouds.6 mph77%29.98 "HgN/A
10:30 PM61 °FOvercast.2 mph72%29.98 "HgN/A
10:00 PM61 °FClear.2 mph72%29.98 "Hg10 mi
9:30 PM63 °FOvercast.2 mph68%29.98 "HgN/A
9:00 PM61 °FClear.3 mph72%29.95 "Hg10 mi
8:30 PM63 °FClear.5 mph64%29.95 "Hg10 mi
8:00 PM64 °FSunny.5 mph64%29.95 "Hg10 mi
7:30 PM66 °FSunny.2 mph56%29.95 "Hg10 mi
7:00 PM68 °FSunny.3 mph53%29.95 "Hg10 mi
6:30 PM70 °FSunny.2 mph50%29.95 "Hg10 mi
6:00 PM72 °FPassing clouds.6 mph44%29.95 "HgN/A
5:30 PM72 °FPassing clouds.6 mph47%29.98 "HgN/A
5:00 PM72 °FPassing clouds.8 mph44%29.95 "HgN/A
4:30 PM72 °FPassing clouds.9 mph41%29.95 "HgN/A
4:00 PM72 °FPassing clouds.13 mph44%29.98 "HgN/A
3:30 PM72 °FPassing clouds.13 mph44%29.98 "HgN/A
3:00 PM72 °FScattered clouds.12 mph47%29.98 "HgN/A
2:30 PM72 °FScattered clouds.10 mph50%29.98 "HgN/A
2:00 PM72 °FScattered clouds.14 mph50%29.98 "HgN/A
1:30 PM70 °FScattered clouds.9 mph57%29.98 "HgN/A
1:00 PM70 °FScattered clouds.9 mph60%29.98 "HgN/A
12:30 PM68 °FBroken clouds.10 mph64%29.98 "HgN/A
12:00 PM68 °FBroken clouds.12 mph64%29.98 "HgN/A
11:30 AM68 °FPartly sunny.9 mph69%29.98 "HgN/A
11:00 AM66 °FPartly sunny.9 mph73%29.98 "HgN/A
10:30 AM66 °FPartly sunny.7 mph78%29.98 "HgN/A
10:00 AM63 °FBroken clouds.8 mph83%29.95 "HgN/A
Weather by CustomWeather, © 2015

See weather overviewHow to use our weather pages